一网星座-0356星 (ONEWEB-0356 )

导读

ONEWEB-0356是英国OneWeb公司星座组网卫星之一,于2021年10月14日发射,属于低轨互联网卫星项目。卫星重约147.5kg,运行于高度1200km、倾角87.4°近地轨道,配备Ku/Ka波段天线与离子电推进系统,旨在为全球提供稳定、高速的宽带互联网连接,是OneWeb打造全球卫星互联网星座的重要组成部分,支撑全球偏远地区、海上与航空的网络覆盖。

基本信息
目录编号:
49283
目录名称:
ONEWEB-0356
国际标识:
2021-090E
轨道中心:
EARTH
卫星名称:
一网星座-0356星
卫星全名:
一网星座-0356星 (ONEWEB-0356 )
卫星状态:
在轨 (已飞行1797 天)
发射日期:
2021-10-14 UTC
国别 :
英国 (GB)
星等 :
--
该卫星已列入 空间交会检测服务 Space Conjunction Data Service (SCDS) ,当前飞行风险评估等级: 无高风险
轨道信息
数据来源 国际轨道数据
星历时间: 2026-09-15T18:51:47+0800
12小时前
查看轨道信息
半长轴: 7559.908km
偏心率: 0.0002709
轨道倾角: 87.914°
近地点辐角 96.787°
升交点赤经 256.428°
平近点角 263.357°
近地点: 1179.723km
远地点: 1183.819km
周期: 109.027分钟
每日圈数: 13.207726
详细信息
平衡模式:
三轴稳定
覆盖范围:
全球
运营商:
一网卫星公司
运营商所在国:
英国
制造商(研发单位):
一网卫星公司
制造商所在国:
英国
使用方式:
暂无
卫星简介
OneWeb卫星网络由648颗重约125公斤的微型卫星组成,运行在1200公里的轨道上。 每颗卫星都能够提供至少每秒8千兆位的吞吐量,以使用其高吞吐量的Ku频段有效载荷为家庭和移动平台提供互联网接入。该卫星仍在工作。
2D轨道图
3D轨道图
轨道高度分析图
轨道倾角分析图
轨道综合分析图
查看轨道综合分析图
与全量物体交会距离演化趋势 订阅飞行安全评估服务
与全量物体交会风险概率演化趋势 订阅飞行安全评估服务